TimeCDT,TemperatureF,Dew PointF,Humidity,Sea Level PressureIn,VisibilityMPH,Wind Direction,Wind SpeedMPH,Gust SpeedMPH,PrecipitationIn,Events,Conditions,WindDirDegrees,DateUTC
12:07 AM,68.0,66.2,94,29.99,3.0,Calm,Calm,-,N/A,,Clear,0,2013-09-27 05:07:00
12:53 AM,66.9,64.9,93,29.99,5.0,Calm,Calm,-,N/A,,Clear,0,2013-09-27 05:53:00
1:53 AM,66.9,64.0,90,29.99,8.0,Calm,Calm,-,N/A,,Clear,0,2013-09-27 06:53:00
2:53 AM,64.9,63.0,93,30.00,1.5,Calm,Calm,-,N/A,,Clear,0,2013-09-27 07:53:00
3:03 AM,64.4,62.6,94,30.00,3.0,Calm,Calm,-,N/A,,Clear,0,2013-09-27 08:03:00
3:53 AM,64.9,63.0,93,30.00,7.0,Calm,Calm,-,N/A,,Clear,0,2013-09-27 08:53:00
4:53 AM,64.0,62.1,93,30.02,8.0,Calm,Calm,-,N/A,,Clear,0,2013-09-27 09:53:00
5:53 AM,64.0,62.1,93,30.04,8.0,Calm,Calm,-,N/A,,Clear,0,2013-09-27 10:53:00
6:34 AM,62.6,60.8,94,30.06,2.0,Calm,Calm,-,N/A,,Clear,0,2013-09-27 11:34:00
6:43 AM,62.6,60.8,94,30.07,4.0,Calm,Calm,-,N/A,,Clear,0,2013-09-27 11:43:00
6:53 AM,63.0,61.0,93,30.06,7.0,North,3.5,-,N/A,,Clear,10,2013-09-27 11:53:00
7:53 AM,68.0,64.9,90,30.08,6.0,NE,3.5,-,N/A,,Clear,50,2013-09-27 12:53:00
8:53 AM,71.1,66.0,84,30.10,8.0,Calm,Calm,-,N/A,,Clear,0,2013-09-27 13:53:00
9:53 AM,75.9,64.0,67,30.11,9.0,East,6.9,-,N/A,,Clear,100,2013-09-27 14:53:00
10:53 AM,79.0,63.0,58,30.11,10.0,East,8.1,-,N/A,,Clear,90,2013-09-27 15:53:00
11:53 AM,80.1,63.0,56,30.09,10.0,ESE,6.9,-,N/A,,Clear,120,2013-09-27 16:53:00
12:53 PM,80.1,63.0,56,30.07,10.0,Calm,Calm,-,N/A,,Clear,0,2013-09-27 17:53:00
1:53 PM,82.0,62.1,51,30.04,10.0,East,6.9,-,N/A,,Partly Cloudy,80,2013-09-27 18:53:00
2:53 PM,84.0,60.1,44,30.02,10.0,ESE,5.8,-,N/A,,Clear,110,2013-09-27 19:53:00
3:53 PM,81.0,60.1,49,30.02,10.0,East,3.5,-,N/A,,Clear,80,2013-09-27 20:53:00
4:53 PM,84.0,53.1,34,30.01,10.0,ENE,4.6,-,N/A,,Clear,70,2013-09-27 21:53:00
5:53 PM,81.0,54.0,39,30.02,10.0,East,4.6,-,N/A,,Clear,80,2013-09-27 22:53:00
6:53 PM,73.9,57.9,57,30.03,10.0,East,4.6,-,N/A,,Clear,80,2013-09-27 23:53:00
7:53 PM,71.1,60.1,68,30.04,10.0,Calm,Calm,-,N/A,,Clear,0,2013-09-28 00:53:00
8:53 PM,66.9,60.1,79,30.06,9.0,Calm,Calm,-,N/A,,Clear,0,2013-09-28 01:53:00
9:53 PM,64.9,62.1,90,30.08,10.0,Calm,Calm,-,N/A,,Clear,0,2013-09-28 02:53:00
10:53 PM,64.0,60.1,87,30.08,10.0,Calm,Calm,-,N/A,,Clear,0,2013-09-28 03:53:00
11:53 PM,63.0,59.0,87,30.08,10.0,Calm,Calm,-,N/A,,Clear,0,2013-09-28 04:53:00